Location: Mahannah Oil Field
(37.4664°N, 96.6003°W)
Time: 13:25:53
(UTC+00:00)

A-11 Canister half - Pass Details

Date: 22 January 2021
Orbit: 1525 x 1684 km, 47.3° (Epoch: 05 March)

Event Time Altitude Azimuth Distance (km) Brightness Sun altitude
Rises 01:32:43 0° 292° (WNW) 4,735 12.5 -22.4°
Reaches altitude 10° 01:35:55 10° 298° (WNW) 3,771 11.8 -23.1°
Maximum altitude 01:45:14 52° 13° (NNE) 1,934 9.3 -24.9°
Enters shadow 01:48:31 39° 62° (ENE) 2,264 9.4 -25.5°
